Details for United Airlines at KEWR




Go Back


Latest METAR
Local Time

KEWR 221051Z 31006KT 10SM SCT025 SCT180 BKN220 23/20 A3001 RMK AO2 SLP161 T02280200
22/09/2018, 07:22:27

Description
Results
United Airlines Logo
Number of Pilots based at KEWR
0 Pilots Based here
Number of United Airlines Flights Departed from KEWR
2 Flights Departed
Number of United Airlines Flights Arrived at KEWR
3 Flights Arrived
Number of United Airlines Schedules Departing from KEWR
740 Schedules
Number of United Airlines Schedules Arriving at KEWR
681 Schedules
Number of United Airlines Schedules Departing from KEWR availible today
386 Schedules Today
Number of United Airlines Schedules Arriving at KEWR availible today
375 Schedules Today
Average Landing Rate at KEWR
-180 fpm
United Airlines Average Landing Rate at KEWR
-158 fpm
Total Fuel Purchased at KEWR by United Airlines
8,740.21 kgs / 19,268.67 lbs

Pilots Based at KEWR


Pilot ID
Pilot Name
Pilot Rank
No. of Flights
No. of Flying Hours
There are no pilots assigned to this hub!   Will you be the first?
Content